Location: Conover
(35.7170°N, 81.2250°W)
Time: 07:05:10
(UTC-04:00)

Daily predictions for brighter satellites

Satellite Brightness Start Highest point End
(mag) Time Altitude Azimuth Time Altitude Azimuth Time Altitude Azimuth
Cosmos 2369 Rocket 3.8 20:56:02 10° NW 21:01:05 34° WSW 21:06:08 10° SSW
Cosmos 2315 Rocket 4.3 20:57:30 10° S 21:03:45 78° W 21:10:06 10° N
Cosmos 1544 Rocket 3.6 21:00:18 10° N 21:04:39 90° WSW 21:08:58 10° S
Cosmos 1943 Rocket 2.7 20:59:16 10° NNW 21:04:48 63° WSW 21:10:15 10° S
Aureole 1 Rocket 2.9 21:04:24 10° S 21:07:34 34° ESE 21:10:23 10° NE
Resurs 1-3 3.9 21:08:25 10° S 21:12:47 69° WSW 21:17:10 10° NNW
Cosmos 405 Rocket 2.7 21:10:29 10° S 21:14:09 62° E 21:17:56 10° NNE
DEBRIS 3.5 21:14:11 10° WSW 21:16:59 69° NNW 21:24:49 10° NE
Cosmos 1500 4.0 21:14:42 10° NNW 21:18:22 51° W 21:22:00 10° S
Meteor 1-19 Rocket 4.3 21:12:48 10° S 21:18:34 67° E 21:24:15 10° NNE
Cosmos 923 Rocket 4.2 21:15:03 10° SSW 21:20:22 80° WNW 21:25:41 10° NNE
Cosmos 1441 Rocket 3.7 21:19:33 10° SSE 21:23:02 38° E 21:26:31 10° NNE
Tiangong 2 2.5 21:20:08 10° W 21:23:10 39° NNW 21:26:10 10° NE
ERS-1 Rocket 4.0 21:21:27 12° SE 21:25:16 28° ENE 21:29:32 10° N
Resurs 01 Rocket 2.9 21:22:21 10° S 21:26:32 41° W 21:30:44 10° NNW
Cosmos 1455 Rocket 3.8 21:25:19 10° NNW 21:29:34 53° W 21:33:45 10° S
CENTAUR R/B 3.2 21:21:32 10° NNW 21:29:38 88° ENE 21:37:39 12° SSE
Nadezhda 1 Rocket 4.1 21:29:02 10° S 21:35:14 61° E 21:41:32 10° NNE
Meteor 1-29 2.8 21:32:46 10° NNE 21:36:08 84° E 21:39:30 10° S
COSMOS 2406 3.9 21:35:05 10° SW 21:40:43 58° WNW 21:46:22 10° NNE
Cosmos 2082 Rocket 3.5 21:41:51 17° ESE 21:43:32 20° E 21:47:30 10° NE
ASTRO E2 3.8 21:44:50 10° WSW 21:48:21 29° SSW 21:49:56 22° SSE
CZ-4B DEB 2.8 21:48:37 18° S 21:50:41 67° W 21:53:40 10° NNW
Cosmos 1743 3.5 21:47:10 10° NNW 21:50:58 53° W 21:54:46 10° S
CRYOSAT 2 4.4 21:48:52 17° SSE 21:52:30 60° E 21:57:16 10° N
Cosmos 2154 Rocket 4.3 21:47:23 10° N 21:53:33 50° E 21:57:43 20° SSE
Cosmos 1238 Rocket 4.1 21:47:50 10° S 21:54:33 83° E 22:01:08 10° N
Aureole 3 Rocket 4.2 21:50:05 10° SSW 21:56:41 62° W 22:01:22 10° N
ISS -1.2 21:54:58 10° W 21:57:42 23° NNW 22:00:25 10° NNE
ASTEX 1 3.3 21:55:06 17° SSE 21:58:58 77° E 22:03:51 10° N
H-2A R/B 3.4 21:59:49 18° E 22:01:33 21° ENE 22:05:17 10° NNE
OAO 2 Rocket 3.2 21:57:04 10° W 22:02:00 82° S 22:05:08 23° E
Helios 1A 4.1 21:59:06 10° S 22:03:04 40° W 22:07:03 10° NNW
Cosmos 1624 Rocket 4.5 21:58:02 10° N 22:03:08 45° ENE 22:05:36 27° SE
SL-27 R/B 4.3 22:02:26 10° SW 22:05:48 34° WNW 22:09:10 10° N
Cosmos 967 Rocket 4.4 22:00:00 10° SSW 22:06:14 76° ESE 22:12:31 10° NNE
Cosmos 1939 Rocket 3.9 22:04:16 12° SSW 22:07:35 40° W 22:11:15 10° NNW
YAOGAN 6 2.8 22:06:34 25° S 22:08:25 65° W 22:11:54 10° NNW
Cosmos 2228 4.4 22:05:38 10° NNE 22:08:59 22° ENE 22:09:27 22° E
Cosmos 921 Rocket 4.1 22:07:33 10° N 22:11:31 31° ENE 22:12:33 27° E
Cosmos 1666 3.8 22:10:01 10° NNW 22:13:33 40° W 22:16:14 15° SSW
Meteor 2-9 Rocket 4.4 22:09:30 10° NNW 22:15:00 72° W 22:19:13 18° S
Okean 1-7 Rocket 4.2 22:11:38 10° SSW 22:16:00 57° W 22:20:26 10° N
Cosmos 1892 Rocket 3.6 22:15:22 35° SSE 22:16:59 56° E 22:21:19 10° NNE
Cosmos 1833 Rocket 3.1 22:19:03 32° SE 22:20:39 40° ESE 22:25:51 10° NE
DNEPR-1 R/B 4.3 22:16:29 10° NW 22:20:40 48° WSW 22:22:55 27° S
Intercosmos 24 3.6 22:18:10 10° N 22:21:51 81° W 22:22:54 44° S
NOSS 8 (E) 4.3 22:19:23 13° SSW 22:22:24 88° ESE 22:26:00 10° NNE
Cosmos 2056 Rocket 3.5 22:17:19 10° N 22:22:27 64° ENE 22:24:17 38° SE
CZ-3B Rocket 4.1 22:18:27 10° SSW 22:39:10 - ESE 22:21:32 21° S
Cosmos 1437 Rocket 2.6 22:20:33 10° N 22:24:24 81° E 22:25:17 52° SSE
MetOp-A 4.1 22:23:24 31° SSE 22:26:03 85° ENE 22:31:26 10° NNW
Cosmos 2341 Rocket 4.0 22:20:03 10° N 22:26:24 68° E 22:29:28 32° SSE
Cosmos 1606 Rocket 3.4 22:27:47 10° N 22:32:07 88° E 22:33:15 49° S
PSLV R/B 3.3 22:30:08 10° WNW 22:32:59 67° NNW 22:32:59 67° NNW
Cosmos 1066 Rocket 4.4 22:34:17 41° SE 22:35:33 49° E 22:40:55 10° NNE
USA 245 4.3 22:42:20 26° N 22:42:20 26° N 22:43:31 10° N
Cosmos 1726 Rocket 3.4 22:37:31 10° N 22:41:51 87° W 22:42:37 59° S
Cosmos 1515 4.0 22:40:58 44° SW 22:41:56 61° W 22:45:42 10° N
COSMOS 2487 2.5 22:43:44 71° W 22:43:54 72° WNW 22:47:28 10° NNE
CZ-3A R/B 3.0 22:45:00 10° WSW 22:48:01 21° NW 22:48:50 17° NNW
Landsat 7 4.1 22:52:27 49° E 22:52:45 50° ENE 22:57:21 10° N
SPOT 1/Viking Rocket 3.4 22:51:40 56° SSE 22:52:46 79° ENE 22:57:56 10° N
YAOGAN 11 4.4 22:52:10 48° SW 22:52:59 57° W 22:57:16 10° NNW
Cosmos 2181 Rocket 4.1 22:49:25 25° SSW 22:53:24 75° W 22:59:43 10° N
Cosmos 1452 Rocket 3.8 22:49:19 10° N 22:54:26 50° ENE 22:55:04 47° E
Cosmos 1980 Rocket 3.6 22:50:49 10° N 22:55:15 23° ENE 22:56:23 22° ENE
Cosmos 2058 Rocket 3.0 22:52:02 10° N 22:56:28 83° W 22:56:51 73° SSW
ARGOS 3.4 22:58:31 41° SSW 23:00:17 61° W 23:05:40 10° NNW
Tiangong 2 3.4 22:57:51 10° NW 23:00:23 22° N 23:00:58 20° NNE
Terra 2.2 23:07:57 49° ENE 23:07:57 49° ENE 23:12:22 10° N
USA 267 4.3 23:02:18 10° ENE 23:05:41 26° E 23:05:41 26° E
SPOT 5 3.4 23:09:29 40° WSW 23:09:59 42° W 23:14:06 10° NNW
H-2A R/B 2.6 23:15:12 52° NE 23:15:12 52° NE 23:19:09 10° N
IGS 5A 4.2 23:18:14 46° NNE 23:18:14 46° NNE 23:21:26 10° N
Cosmos 468 4.4 23:17:24 70° SSW 23:18:00 84° WNW 23:23:19 10° NNE
Cosmos 1812 Rocket 4.4 23:15:08 10° N 23:18:32 41° NE 23:18:32 41° NE
Cosmos 864 Rocket 4.4 23:13:29 10° N 23:19:47 77° E 23:20:41 65° SE
Meteor 2-21 4.2 23:18:01 10° N 23:24:04 88° ENE 23:24:52 70° S
Cosmos 1626 Rocket 4.0 23:26:20 59° NW 23:26:20 59° NW 23:30:03 10° N
Cosmos 2082 Rocket 3.0 23:23:34 21° SW 23:27:10 48° WNW 23:32:39 10° N
Meteor 2-21 Rocket 4.2 23:22:05 10° N 23:28:09 77° E 23:28:37 72° SE
Cosmos 2278 4.2 23:25:10 10° NNW 23:30:37 48° WSW 23:31:15 46° SW
SL-19 R/B 4.0 23:27:52 10° NNE 23:33:11 85° WNW 23:33:14 84° W
Meteor 1-22 Rocket 4.0 23:29:22 10° N 23:34:39 86° W 23:34:39 86° W
USA 229 DEB 4.3 23:30:29 10° NNW 23:37:25 50° NE 23:39:05 43° E
USA 229 4.3 23:30:35 10° NNW 23:37:31 49° NE 23:39:12 42° E
H-2A R/B 2.9 23:40:27 37° WSW 23:40:41 37° W 23:45:19 10° NNW
Cosmos 2366 rocket 4.1 23:36:41 10° NNW 23:42:46 65° W 23:43:33 59° SW
Cosmos 158 Rocket 4.1 23:46:05 72° NW 23:46:05 72° NW 23:51:17 10° NNE
Cosmos 1697 Rocket 2.8 23:45:41 10° NNW 23:50:56 67° W 23:50:56 67° W
